^^
Datos históricos de la estación: Murcia-Puente Tocinos
Diario Informe para Enero 28, 2019 Unidades:  Métrico    Inglés   Ambas
Diario Semanal Mensual Anual Configurable
  Máximo: Mínimo: Media:
Temperatura: 20.6 °C 10.3 °C 14.9 °C
Punto de rocio: 2.8 °C -2.7 °C -0.2 °C
Humedad: 49% 21% 37%
Velocidad viento: 30.6km/h 0.0km/h 10.7km/h
Racha viento: 50.0km/h - -
Viento- - WSW
Presión: 1015.9 hPa 1010.2 hPa -
Precipitación: 0.0 mm    
Historical Graphs
 
 
Tabla de datos para Enero 28, 2019
Hora Temperatura Punto de rocio Presión Viento Velocidad viento Racha viento Humedad Intensidad lluvia(por hora) Nubes
00:04 14.0 °C -1.2 °C 1015.0 hPa NW 13.0 km/h 18.5 km/h 35% 0.0 mm CLR
00:09 14.1 °C -1.2 °C 1015.0 hPa WSW 11.9 km/h 16.7 km/h 35% 0.0 mm CLR
00:14 13.9 °C -1.3 °C 1015.0 hPa West 11.9 km/h 11.1 km/h 35% 0.0 mm CLR
00:19 13.8 °C -1.4 °C 1015.0 hPa WSW 9.5 km/h 16.7 km/h 35% 0.0 mm CLR
00:24 13.8 °C -1.1 °C 1015.0 hPa West 9.5 km/h 13.7 km/h 36% 0.0 mm CLR
00:29 13.8 °C -1.4 °C 1015.0 hPa West 9.5 km/h 14.8 km/h 35% 0.0 mm CLR
00:34 13.9 °C -1.3 °C 1015.2 hPa SSW 9.5 km/h 20.4 km/h 35% 0.0 mm CLR
00:39 14.1 °C -1.2 °C 1015.2 hPa West 11.1 km/h 14.8 km/h 35% 0.0 mm CLR
00:44 13.9 °C -1.3 °C 1015.2 hPa SW 11.1 km/h 11.9 km/h 35% 0.0 mm CLR
00:49 13.8 °C -1.4 °C 1015.1 hPa WSW 8.7 km/h 16.7 km/h 35% 0.0 mm CLR
00:54 13.8 °C -1.4 °C 1015.1 hPa West 8.7 km/h 16.7 km/h 35% 0.0 mm CLR
00:59 13.7 °C -1.5 °C 1015.1 hPa West 10.3 km/h 20.4 km/h 35% 0.0 mm CLR
01:04 13.5 °C -1.3 °C 1015.3 hPa WSW 10.3 km/h 13.0 km/h 36% 0.0 mm CLR
01:09 13.4 °C -1.4 °C 1015.3 hPa West 10.3 km/h 22.2 km/h 36% 0.0 mm CLR
01:14 13.3 °C -1.5 °C 1015.3 hPa West 10.3 km/h 13.0 km/h 36% 0.0 mm CLR
01:19 13.3 °C -1.5 °C 1015.2 hPa WSW 9.5 km/h 14.8 km/h 36% 0.0 mm CLR
01:24 13.3 °C -1.5 °C 1015.2 hPa WSW 9.5 km/h 9.3 km/h 36% 0.0 mm CLR
01:29 13.3 °C -1.5 °C 1015.2 hPa SW 8.4 km/h 12.2 km/h 36% 0.0 mm CLR
01:34 13.2 °C -1.2 °C 1015.3 hPa West 8.4 km/h 11.1 km/h 37% 0.0 mm CLR
01:39 13.1 °C -1.3 °C 1015.3 hPa West 7.6 km/h 14.8 km/h 37% 0.0 mm CLR
01:44 13.1 °C -1.3 °C 1015.3 hPa WSW 7.6 km/h 16.7 km/h 37% 0.0 mm CLR
01:49 13.2 °C -1.2 °C 1015.5 hPa WNW 8.7 km/h 13.0 km/h 37% 0.0 mm CLR
01:54 13.2 °C -1.2 °C 1015.5 hPa West 8.7 km/h 13.0 km/h 37% 0.0 mm CLR
01:59 13.1 °C -0.9 °C 1015.5 hPa WNW 8.7 km/h 14.8 km/h 38% 0.0 mm CLR
02:04 13.2 °C -1.2 °C 1015.6 hPa NW 8.7 km/h 24.1 km/h 37% 0.0 mm CLR
02:09 13.3 °C -1.1 °C 1015.6 hPa WSW 10.3 km/h 13.0 km/h 37% 0.0 mm CLR
02:14 13.3 °C -0.7 °C 1015.6 hPa West 10.3 km/h 11.1 km/h 38% 0.0 mm CLR
02:19 13.3 °C -0.7 °C 1015.8 hPa WSW 7.6 km/h 16.7 km/h 38% 0.0 mm CLR
02:24 13.3 °C -0.7 °C 1015.8 hPa WSW 7.6 km/h 13.0 km/h 38% 0.0 mm CLR
02:29 13.3 °C -0.7 °C 1015.8 hPa WSW 7.6 km/h 8.4 km/h 38% 0.0 mm CLR
02:34 13.2 °C -0.8 °C 1015.8 hPa SSW 7.6 km/h 7.4 km/h 38% 0.0 mm CLR
02:39 13.2 °C -0.8 °C 1015.8 hPa SW 5.0 km/h 7.4 km/h 38% 0.0 mm CLR
02:44 13.2 °C -0.4 °C 1015.8 hPa WSW 5.0 km/h 9.3 km/h 39% 0.0 mm CLR
02:49 13.2 °C -0.4 °C 1015.5 hPa WSW 5.8 km/h 7.4 km/h 39% 0.0 mm CLR
02:54 13.1 °C -0.6 °C 1015.5 hPa West 5.8 km/h 16.7 km/h 39% 0.0 mm CLR
02:59 12.9 °C -0.4 °C 1015.5 hPa West 6.4 km/h 7.4 km/h 40% 0.0 mm CLR
03:04 12.8 °C -0.5 °C 1015.5 hPa WSW 6.4 km/h 7.4 km/h 40% 0.0 mm CLR
03:09 12.7 °C -0.6 °C 1015.5 hPa SW 5.0 km/h 7.4 km/h 40% 0.0 mm CLR
03:14 12.6 °C -0.7 °C 1015.5 hPa West 5.0 km/h 7.4 km/h 40% 0.0 mm CLR
03:19 12.6 °C -0.7 °C 1015.6 hPa West 3.9 km/h 5.6 km/h 40% 0.0 mm CLR
03:24 12.6 °C -0.3 °C 1015.6 hPa West 3.9 km/h 3.7 km/h 41% 0.0 mm CLR
03:29 12.5 °C -0.4 °C 1015.6 hPa West 2.9 km/h 3.9 km/h 41% 0.0 mm CLR
03:34 12.4 °C -0.2 °C 1015.5 hPa East 2.9 km/h 4.7 km/h 42% 0.0 mm CLR
03:39 12.3 °C -0.3 °C 1015.5 hPa East 3.2 km/h 5.8 km/h 42% 0.0 mm CLR
03:44 12.2 °C -0.3 °C 1015.5 hPa East 3.2 km/h 7.4 km/h 42% 0.0 mm CLR
03:49 12.2 °C -0.3 °C 1015.1 hPa East 4.7 km/h 7.4 km/h 42% 0.0 mm CLR
03:54 12.0 °C -0.2 °C 1015.1 hPa ENE 4.7 km/h 9.3 km/h 43% 0.0 mm CLR
03:59 11.9 °C -0.3 °C 1015.1 hPa ENE 5.0 km/h 5.6 km/h 43% 0.0 mm CLR
04:04 11.8 °C -0.4 °C 1015.2 hPa ENE 5.0 km/h 5.6 km/h 43% 0.0 mm CLR
04:10 11.7 °C -0.2 °C 1015.2 hPa ENE 2.9 km/h 2.9 km/h 44% 0.0 mm CLR
04:14 11.6 °C 0.1 °C 1015.2 hPa ENE 2.9 km/h 5.6 km/h 45% 0.0 mm CLR
04:19 11.4 °C -0.1 °C 1015.4 hPa ENE 2.3 km/h   45% 0.0 mm CLR
04:24 11.3 °C -0.2 °C 1015.4 hPa West 2.3 km/h 5.0 km/h 45% 0.0 mm CLR
04:29 11.4 °C -0.1 °C 1015.4 hPa SSW 2.3 km/h 16.7 km/h 45% 0.0 mm CLR
04:34 11.4 °C -0.1 °C 1015.4 hPa West 2.3 km/h 23.7 km/h 45% 0.0 mm CLR
04:39 11.5 °C -0.3 °C 1015.4 hPa WNW 8.4 km/h 11.1 km/h 44% 0.0 mm CLR
04:44 11.6 °C -0.3 °C 1015.4 hPa NW 8.4 km/h 9.3 km/h 44% 0.0 mm CLR
04:49 11.6 °C -0.3 °C 1015.5 hPa West 7.6 km/h 15.6 km/h 44% 0.0 mm CLR
04:54 11.7 °C -0.2 °C 1015.5 hPa WNW 7.6 km/h 13.0 km/h 44% 0.0 mm CLR
04:59 11.8 °C -0.1 °C 1015.5 hPa WNW 8.7 km/h 18.5 km/h 44% 0.0 mm CLR
05:04 11.9 °C -0.3 °C 1015.5 hPa West 8.7 km/h 16.7 km/h 43% 0.0 mm CLR
05:09 11.9 °C 0.0 °C 1015.5 hPa NE 8.4 km/h 7.4 km/h 44% 0.0 mm CLR
05:15 11.8 °C -0.1 °C 1015.5 hPa NNE 8.0 km/h 8.0 km/h 44% 0.0 mm CLR
05:19 11.5 °C -0.1 °C 1015.6 hPa NW 3.9 km/h 13.0 km/h 45% 0.0 mm CLR
05:24 11.2 °C 0.0 °C 1015.6 hPa NNW 3.9 km/h 9.3 km/h 46% 0.0 mm CLR
05:29 10.9 °C 0.0 °C 1015.6 hPa NNE 5.8 km/h 7.4 km/h 47% 0.0 mm CLR
05:34 10.7 °C 0.1 °C 1015.7 hPa NNE 5.8 km/h 7.4 km/h 48% 0.0 mm CLR
05:40 10.5 °C -0.1 °C 1015.7 hPa NW 4.7 km/h 5.6 km/h 48% 0.0 mm CLR
05:44 10.4 °C -0.2 °C 1015.7 hPa NW 4.7 km/h 9.5 km/h 48% 0.0 mm CLR
05:49 10.6 °C 0.1 °C 1015.5 hPa NE 3.9 km/h 5.6 km/h 48% 0.0 mm CLR
05:54 10.6 °C 0.1 °C 1015.5 hPa NE 3.9 km/h 4.7 km/h 48% 0.0 mm CLR
05:59 10.5 °C -0.1 °C 1015.5 hPa NE 3.9 km/h 5.6 km/h 48% 0.0 mm CLR
06:04 10.4 °C -0.2 °C 1015.1 hPa NE 3.9 km/h 3.7 km/h 48% 0.0 mm CLR
06:09 10.4 °C 0.1 °C 1015.1 hPa NE 2.9 km/h 3.7 km/h 49% 0.0 mm CLR
06:14 10.3 °C 0.1 °C 1015.1 hPa NE 2.9 km/h 1.9 km/h 49% 0.0 mm CLR
06:19 10.3 °C -0.2 °C 1014.7 hPa Calm   3.7 km/h 48% 0.0 mm CLR
06:24 10.4 °C -0.2 °C 1014.7 hPa Calm   11.1 km/h 48% 0.0 mm CLR
06:29 10.7 °C -0.2 °C 1014.7 hPa North 3.9 km/h 7.4 km/h 47% 0.0 mm CLR
06:34 10.6 °C -0.3 °C 1015.0 hPa NW 3.9 km/h 10.0 km/h 47% 0.0 mm CLR
06:39 10.5 °C -0.1 °C 1015.0 hPa NNW 5.8 km/h 6.4 km/h 48% 0.0 mm CLR
06:44 10.4 °C -0.4 °C 1015.0 hPa WNW 5.8 km/h 9.3 km/h 47% 0.0 mm CLR
06:49 10.7 °C -0.4 °C 1015.4 hPa NW 5.0 km/h 9.5 km/h 46% 0.0 mm CLR
06:54 11.1 °C -0.4 °C 1015.4 hPa WNW 5.0 km/h 7.4 km/h 45% 0.0 mm CLR
06:59 11.1 °C -0.4 °C 1015.4 hPa NW 6.4 km/h 9.3 km/h 45% 0.0 mm CLR
07:04 11.1 °C -0.4 °C 1015.6 hPa NNW 6.4 km/h 5.6 km/h 45% 0.0 mm CLR
07:09 11.2 °C -0.6 °C 1015.6 hPa WNW 4.7 km/h 7.4 km/h 44% 0.0 mm CLR
07:14 11.2 °C -0.6 °C 1015.6 hPa WNW 4.7 km/h 3.7 km/h 44% 0.0 mm CLR
07:19 11.4 °C -0.4 °C 1015.5 hPa ENE 3.2 km/h 9.3 km/h 44% 0.0 mm CLR
07:24 11.4 °C -0.8 °C 1015.5 hPa East 3.2 km/h 8.7 km/h 43% 0.0 mm CLR
07:29 11.5 °C -0.3 °C 1015.5 hPa SSW 4.7 km/h 9.3 km/h 44% 0.0 mm CLR
07:34 11.4 °C -0.8 °C 1015.7 hPa WSW 4.7 km/h 9.3 km/h 43% 0.0 mm CLR
07:39 11.6 °C -0.6 °C 1015.7 hPa SSE 5.0 km/h 9.5 km/h 43% 0.0 mm CLR
07:44 11.7 °C -0.5 °C 1015.7 hPa SW 5.0 km/h 9.3 km/h 43% 0.0 mm CLR
07:49 11.8 °C -0.4 °C 1015.6 hPa SW 5.8 km/h 6.4 km/h 43% 0.0 mm CLR
07:54 11.9 °C -0.3 °C 1015.6 hPa SSW 5.8 km/h 9.5 km/h 43% 0.0 mm CLR
07:59 11.8 °C -0.4 °C 1015.6 hPa South 5.8 km/h 11.1 km/h 43% 0.0 mm CLR
08:04 11.7 °C -0.5 °C 1015.8 hPa South 5.8 km/h 9.5 km/h 43% 0.0 mm CLR
08:09 11.6 °C -0.3 °C 1015.8 hPa SSW 7.6 km/h 11.1 km/h 44% 0.0 mm CLR
08:14 11.5 °C -0.3 °C 1015.8 hPa SW 7.6 km/h 13.0 km/h 44% 0.0 mm CLR
08:19 11.4 °C -0.4 °C 1015.7 hPa WSW 6.4 km/h 5.6 km/h 44% 0.0 mm CLR
08:24 11.4 °C -0.1 °C 1015.7 hPa WSW 6.4 km/h 7.4 km/h 45% 0.0 mm CLR
08:29 11.3 °C -0.2 °C 1015.7 hPa WSW 3.9 km/h 5.8 km/h 45% 0.0 mm CLR
08:34 11.2 °C -0.3 °C 1015.8 hPa South 3.9 km/h 9.3 km/h 45% 0.0 mm CLR
08:40 10.9 °C -0.3 °C 1015.8 hPa South 5.0 km/h 11.1 km/h 46% 0.0 mm CLR
08:44 10.8 °C -0.1 °C 1015.8 hPa SSW 5.0 km/h 11.1 km/h 47% 0.0 mm CLR
08:50 10.6 °C 0.0 °C 1015.8 hPa South 8.0 km/h 14.5 km/h 48% 0.0 mm CLR
08:55 10.6 °C 0.1 °C 1015.8 hPa South 8.0 km/h 19.3 km/h 48% 0.0 mm CLR
08:59 10.9 °C 0.0 °C 1015.8 hPa SSW 8.7 km/h 11.1 km/h 47% 0.0 mm CLR
09:04 11.1 °C -0.1 °C 1015.9 hPa SSE 8.7 km/h 14.8 km/h 46% 0.0 mm CLR
09:09 11.1 °C 0.2 °C 1015.9 hPa South 9.5 km/h 14.0 km/h 47% 0.0 mm CLR
09:14 11.1 °C 0.2 °C 1015.9 hPa South 9.5 km/h 16.7 km/h 47% 0.0 mm CLR
09:19 10.9 °C 0.0 °C 1015.8 hPa SW 9.5 km/h 11.1 km/h 47% 0.0 mm CLR
09:24 11.1 °C 0.2 °C 1015.8 hPa South 9.5 km/h 13.0 km/h 47% 0.0 mm CLR
09:29 11.1 °C 0.2 °C 1015.8 hPa SSW 8.7 km/h 13.0 km/h 47% 0.0 mm CLR
09:35 11.2 °C 0.0 °C 1015.8 hPa South 9.7 km/h 16.1 km/h 46% 0.0 mm CLR
09:39 11.3 °C 0.4 °C 1015.8 hPa SSW 9.5 km/h 13.0 km/h 47% 0.0 mm CLR
09:44 11.4 °C 0.2 °C 1015.8 hPa South 9.5 km/h 11.1 km/h 46% 0.0 mm CLR
09:49 11.6 °C 0.3 °C 1015.5 hPa SSW 8.4 km/h 9.5 km/h 46% 0.0 mm CLR
09:54 11.7 °C 0.4 °C 1015.5 hPa SSE 8.4 km/h 14.8 km/h 46% 0.0 mm CLR
09:59 11.8 °C 0.6 °C 1015.5 hPa South 8.7 km/h 11.1 km/h 46% 0.0 mm CLR
10:04 12.1 °C 0.5 °C 1015.4 hPa South 8.7 km/h 9.3 km/h 45% 0.0 mm CLR
10:10 12.3 °C 0.7 °C 1015.4 hPa South 8.0 km/h 9.7 km/h 45% 0.0 mm CLR
10:15 12.6 °C 0.7 °C 1015.4 hPa SE 6.9 km/h 5.6 km/h 44% 0.0 mm CLR
10:19 12.8 °C 0.8 °C 1015.5 hPa SE 6.4 km/h 7.4 km/h 44% 0.0 mm CLR
10:24 13.2 °C 0.9 °C 1015.5 hPa SSE 6.4 km/h 9.3 km/h 43% 0.0 mm CLR
10:29 13.4 °C 1.1 °C 1015.5 hPa South 5.0 km/h 8.7 km/h 43% 0.0 mm CLR
10:34 13.5 °C 0.8 °C 1015.1 hPa SSE 5.0 km/h 13.0 km/h 42% 0.0 mm CLR
10:39 13.6 °C 0.6 °C 1015.1 hPa SSW 7.6 km/h 13.7 km/h 41% 0.0 mm CLR
10:44 13.7 °C 0.7 °C 1015.1 hPa South 7.6 km/h 10.3 km/h 41% 0.0 mm CLR
10:49 13.9 °C 0.8 °C 1015.1 hPa WSW 8.4 km/h 7.4 km/h 41% 0.0 mm CLR
10:55 14.1 °C 0.7 °C 1015.1 hPa WSW 8.4 km/h 10.0 km/h 40% 0.0 mm CLR
10:59 14.2 °C 0.8 °C 1015.1 hPa NE 5.8 km/h 5.0 km/h 40% 0.0 mm CLR
11:04 14.3 °C 0.5 °C 1015.0 hPa SW 5.8 km/h 11.1 km/h 39% 0.0 mm CLR
11:09 14.5 °C 1.1 °C 1015.0 hPa West 5.0 km/h 3.7 km/h 40% 0.0 mm CLR
11:14 14.8 °C 0.9 °C 1015.0 hPa West 5.0 km/h 3.7 km/h 39% 0.0 mm CLR
11:19 15.2 °C 0.9 °C 1015.0 hPa Calm   3.7 km/h 38% 0.0 mm CLR
11:24 15.3 °C 0.7 °C 1015.0 hPa Calm   7.4 km/h 37% 0.0 mm CLR
11:29 15.4 °C 0.8 °C 1015.0 hPa West 2.3 km/h 3.9 km/h 37% 0.0 mm CLR
11:34 15.4 °C 0.8 °C 1014.8 hPa WSW 2.3 km/h 10.0 km/h 37% 0.0 mm CLR
11:39 15.3 °C 1.1 °C 1014.8 hPa SE 4.7 km/h 7.4 km/h 38% 0.0 mm CLR
11:44 15.4 °C 1.1 °C 1014.8 hPa SW 4.7 km/h 3.7 km/h 38% 0.0 mm CLR
11:49 15.5 °C 0.5 °C 1014.8 hPa NW 4.7 km/h 18.5 km/h 36% 0.0 mm CLR
11:54 15.5 °C 0.5 °C 1014.8 hPa West 4.7 km/h 20.9 km/h 36% 0.0 mm CLR
11:59 15.7 °C 0.3 °C 1014.8 hPa WSW 10.3 km/h 12.2 km/h 35% 0.0 mm CLR
12:04 15.9 °C 0.4 °C 1014.6 hPa WSW 10.3 km/h 17.2 km/h 35% 0.0 mm CLR
12:09 16.0 °C 0.6 °C 1014.6 hPa SSW 11.1 km/h 20.4 km/h 35% 0.0 mm CLR
12:14 16.1 °C 0.6 °C 1014.6 hPa WNW 11.1 km/h 18.3 km/h 35% 0.0 mm CLR
12:19 16.3 °C 0.4 °C 1014.1 hPa WSW 12.2 km/h 20.4 km/h 34% 0.0 mm CLR
12:24 16.4 °C 0.1 °C 1014.1 hPa WNW 12.2 km/h 29.6 km/h 33% 0.0 mm CLR
12:29 16.6 °C 0.7 °C 1014.1 hPa NW 15.6 km/h 23.7 km/h 34% 0.0 mm CLR
12:34 16.8 °C 0.4 °C 1013.6 hPa WSW 15.6 km/h 14.8 km/h 33% 0.0 mm CLR
12:39 16.9 °C 0.1 °C 1013.6 hPa SW 13.7 km/h 11.1 km/h 32% 0.0 mm CLR
12:44 17.1 °C 0.3 °C 1013.6 hPa SW 13.7 km/h 16.7 km/h 32% 0.0 mm CLR
12:49 17.3 °C 0.0 °C 1013.6 hPa WSW 10.0 km/h 33.3 km/h 31% 0.0 mm CLR
12:54 17.3 °C 0.0 °C 1013.6 hPa SW 10.0 km/h 17.2 km/h 31% 0.0 mm CLR
12:59 17.3 °C 0.0 °C 1013.6 hPa WNW 16.4 km/h 29.6 km/h 31% 0.0 mm CLR
13:04 17.2 °C -0.1 °C 1013.4 hPa West 16.4 km/h 33.3 km/h 31% 0.0 mm CLR
13:09 17.2 °C -0.1 °C 1013.4 hPa WNW 19.8 km/h 27.8 km/h 31% 0.0 mm CLR
13:14 17.3 °C 0.0 °C 1013.4 hPa SW 19.8 km/h 24.1 km/h 31% 0.0 mm CLR
13:19 17.5 °C -0.3 °C 1012.8 hPa WSW 12.2 km/h 22.2 km/h 30% 0.0 mm CLR
13:24 17.8 °C 0.0 °C 1012.8 hPa West 12.2 km/h 27.4 km/h 30% 0.0 mm CLR
13:29 18.0 °C 0.2 °C 1012.8 hPa SW 14.0 km/h 29.6 km/h 30% 0.0 mm CLR
13:34 18.2 °C -0.2 °C 1012.3 hPa West 14.0 km/h 33.3 km/h 29% 0.0 mm CLR
13:40 18.5 °C -0.4 °C 1012.3 hPa SW 17.2 km/h 29.6 km/h 28% 0.0 mm CLR
13:44 18.6 °C -0.3 °C 1012.3 hPa West 17.2 km/h 29.1 km/h 28% 0.0 mm CLR
13:49 18.7 °C -0.7 °C 1012.0 hPa WNW 19.0 km/h 25.9 km/h 27% 0.0 mm CLR
13:54 18.8 °C -0.6 °C 1012.0 hPa SW 19.0 km/h 35.2 km/h 27% 0.0 mm CLR
13:59 18.8 °C -0.6 °C 1012.0 hPa WSW 20.9 km/h 46.3 km/h 27% 0.0 mm CLR
14:04 18.9 °C -1.1 °C 1011.5 hPa West 20.9 km/h 42.6 km/h 26% 0.0 mm CLR
14:09 19.1 °C -0.9 °C 1011.5 hPa WNW 24.5 km/h 40.7 km/h 26% 0.0 mm CLR
14:15 19.1 °C -1.4 °C 1011.5 hPa WNW 24.5 km/h 46.3 km/h 25% 0.0 mm CLR
14:19 19.1 °C -1.4 °C 1011.3 hPa WNW 29.1 km/h 50.0 km/h 25% 0.0 mm CLR
14:24 19.4 °C -1.7 °C 1011.3 hPa West 29.1 km/h 46.3 km/h 24% 0.0 mm CLR
14:29 19.4 °C -1.7 °C 1011.3 hPa WSW 28.6 km/h 50.0 km/h 24% 0.0 mm CLR
14:34 19.4 °C -1.7 °C 1010.8 hPa West 28.6 km/h 50.0 km/h 24% 0.0 mm CLR
14:39 19.6 °C -1.6 °C 1010.8 hPa WNW 29.1 km/h 44.9 km/h 24% 0.0 mm CLR
14:44 19.7 °C -2.1 °C 1010.8 hPa West 29.1 km/h 38.9 km/h 23% 0.0 mm CLR
14:50 19.8 °C -2.6 °C 1010.4 hPa West 29.0 km/h 45.1 km/h 22% 0.0 mm CLR
14:54 19.9 °C -2.4 °C 1010.4 hPa West 30.6 km/h 40.7 km/h 22% 0.0 mm CLR
14:59 20.1 °C -1.7 °C 1010.4 hPa West 26.2 km/h 33.3 km/h 23% 0.0 mm CLR
15:04 20.1 °C -2.3 °C 1010.4 hPa WNW 26.2 km/h 41.2 km/h 22% 0.0 mm CLR
15:09 20.1 °C -2.3 °C 1010.4 hPa WNW 25.1 km/h 33.3 km/h 22% 0.0 mm CLR
15:14 20.1 °C -1.7 °C 1010.4 hPa WNW 25.1 km/h 33.3 km/h 23% 0.0 mm CLR
15:19 20.1 °C -1.7 °C 1010.2 hPa WNW 22.5 km/h 29.6 km/h 23% 0.0 mm CLR
15:25 20.3 °C -2.2 °C 1010.2 hPa WNW 22.5 km/h 35.4 km/h 22% 0.0 mm CLR
15:30 20.3 °C -2.1 °C 1010.2 hPa WNW 21.7 km/h 24.1 km/h 22% 0.0 mm CLR
15:34 20.3 °C -2.1 °C 1010.2 hPa West 21.7 km/h 27.8 km/h 22% 0.0 mm CLR
15:40 20.3 °C -2.1 °C 1010.2 hPa WNW 22.5 km/h 27.8 km/h 22% 0.0 mm CLR
15:44 20.4 °C -2.1 °C 1010.2 hPa NNW 22.5 km/h 37.0 km/h 22% 0.0 mm CLR
15:49 20.5 °C -1.9 °C 1010.2 hPa WNW 21.7 km/h 35.2 km/h 22% 0.0 mm CLR
15:54 20.6 °C -1.9 °C 1010.2 hPa WNW 21.7 km/h 24.5 km/h 22% 0.0 mm CLR
15:59 20.6 °C -2.5 °C 1010.2 hPa West 20.9 km/h 40.7 km/h 21% 0.0 mm CLR
16:04 20.6 °C -2.5 °C 1010.2 hPa WNW 20.9 km/h 42.6 km/h 21% 0.0 mm CLR
16:09 20.4 °C -2.7 °C 1010.2 hPa NNW 27.4 km/h 38.9 km/h 21% 0.0 mm CLR
16:15 20.4 °C -2.7 °C 1010.2 hPa WNW 27.4 km/h 37.0 km/h 21% 0.0 mm CLR
16:20 20.4 °C -2.1 °C 1010.4 hPa WNW 25.7 km/h 35.4 km/h 22% 0.0 mm CLR
16:24 20.5 °C -1.9 °C 1010.4 hPa WNW 25.1 km/h 32.3 km/h 22% 0.0 mm CLR
16:30 20.4 °C -2.1 °C 1010.4 hPa WSW 18.3 km/h 24.1 km/h 22% 0.0 mm CLR
16:34 20.3 °C -2.1 °C 1010.5 hPa WNW 18.3 km/h 42.6 km/h 22% 0.0 mm CLR
16:39 20.2 °C -1.6 °C 1010.5 hPa NW 18.3 km/h 29.6 km/h 23% 0.0 mm CLR
16:44 20.3 °C -1.6 °C 1010.5 hPa WNW 18.3 km/h 21.7 km/h 23% 0.0 mm CLR
16:49 20.2 °C -1.6 °C 1010.8 hPa WNW 14.0 km/h 24.1 km/h 23% 0.0 mm CLR
16:54 20.2 °C -1.6 °C 1010.8 hPa WNW 14.0 km/h 29.6 km/h 23% 0.0 mm CLR
17:00 20.1 °C -1.7 °C 1010.8 hPa WNW 19.3 km/h 27.4 km/h 23% 0.0 mm CLR
17:04 20.1 °C -1.7 °C 1011.1 hPa WSW 18.0 km/h 29.6 km/h 23% 0.0 mm CLR
17:09 20.1 °C -1.1 °C 1011.1 hPa NW 14.8 km/h 25.9 km/h 24% 0.0 mm CLR
17:15 19.9 °C -1.3 °C 1011.1 hPa NW 14.5 km/h 27.4 km/h 24% 0.0 mm CLR
17:19 19.8 °C -1.4 °C 1011.3 hPa NNW 14.8 km/h 20.1 km/h 24% 0.0 mm CLR
17:25 19.7 °C -1.4 °C 1011.3 hPa NW 14.5 km/h 20.9 km/h 24% 0.0 mm CLR
17:29 19.6 °C -1.6 °C 1011.3 hPa NNW 10.3 km/h 16.7 km/h 24% 0.0 mm CLR
17:34 19.5 °C -1.1 °C 1011.4 hPa NW 10.3 km/h 16.4 km/h 25% 0.0 mm CLR
17:40 19.4 °C -1.2 °C 1011.4 hPa NW 9.7 km/h 19.3 km/h 25% 0.0 mm CLR
17:44 19.3 °C -1.2 °C 1011.4 hPa NW 10.0 km/h 11.1 km/h 25% 0.0 mm CLR
17:49 19.3 °C -1.2 °C 1011.4 hPa NNW 10.0 km/h 11.1 km/h 25% 0.0 mm CLR
17:55 19.2 °C -0.8 °C 1011.4 hPa NW 9.7 km/h 9.7 km/h 26% 0.0 mm CLR
17:59 19.2 °C -0.8 °C 1011.4 hPa WNW 6.9 km/h 11.1 km/h 26% 0.0 mm CLR
18:05 19.1 °C -0.9 °C 1011.6 hPa NW 8.0 km/h 19.3 km/h 26% 0.0 mm CLR
18:09 18.8 °C -1.7 °C 1011.6 hPa NW 8.4 km/h 24.1 km/h 25% 0.0 mm CLR
18:14 18.7 °C -1.8 °C 1011.6 hPa WNW 8.4 km/h 38.9 km/h 25% 0.0 mm CLR
18:19 18.5 °C -1.9 °C 1012.1 hPa North 16.1 km/h 27.8 km/h 25% 0.0 mm CLR
18:25 18.3 °C -1.6 °C 1012.1 hPa NW 16.1 km/h 24.1 km/h 26% 0.0 mm CLR
18:29 18.2 °C -1.7 °C 1012.1 hPa NNW 13.7 km/h 14.8 km/h 26% 0.0 mm CLR
18:34 18.1 °C -1.2 °C 1012.5 hPa NNW 13.7 km/h 18.5 km/h 27% 0.0 mm CLR
18:39 17.9 °C -1.4 °C 1012.5 hPa NW 10.0 km/h 11.1 km/h 27% 0.0 mm CLR
18:45 17.8 °C -1.4 °C 1012.5 hPa WSW 10.0 km/h 11.1 km/h 27% 0.0 mm CLR
18:49 17.8 °C -1.0 °C 1012.8 hPa NW 7.6 km/h 9.3 km/h 28% 0.0 mm CLR
18:55 17.7 °C -1.1 °C 1012.8 hPa NW 8.0 km/h 9.7 km/h 28% 0.0 mm CLR
18:59 17.7 °C -1.1 °C 1012.8 hPa SW 5.8 km/h 14.8 km/h 28% 0.0 mm CLR
19:04 17.6 °C -1.2 °C 1013.1 hPa West 5.8 km/h 13.0 km/h 28% 0.0 mm CLR
19:09 17.4 °C -0.8 °C 1013.1 hPa West 9.5 km/h 16.7 km/h 29% 0.0 mm CLR
19:15 17.4 °C -0.8 °C 1013.1 hPa West 9.7 km/h 22.5 km/h 29% 0.0 mm CLR
19:19 17.3 °C -0.4 °C 1013.1 hPa West 14.8 km/h 29.6 km/h 30% 0.0 mm CLR
19:25 17.1 °C -0.6 °C 1013.1 hPa West 14.5 km/h 29.0 km/h 30% 0.0 mm CLR
19:30 16.9 °C -0.3 °C 1013.1 hPa NW 16.1 km/h 22.2 km/h 31% 0.0 mm CLR
19:35 16.8 °C 0.0 °C 1013.2 hPa WNW 16.1 km/h 22.5 km/h 32% 0.0 mm CLR
19:40 16.7 °C 0.3 °C 1013.2 hPa West 14.8 km/h 33.3 km/h 33% 0.0 mm CLR
19:45 16.6 °C 0.7 °C 1013.2 hPa West 14.8 km/h 29.6 km/h 34% 0.0 mm CLR
19:50 16.4 °C 0.9 °C 1013.6 hPa WNW 20.1 km/h 20.4 km/h 35% 0.0 mm CLR
19:55 16.3 °C 1.2 °C 1013.6 hPa WNW 20.1 km/h 27.8 km/h 36% 0.0 mm CLR
19:59 16.1 °C 1.4 °C 1013.6 hPa West 18.3 km/h 24.1 km/h 37% 0.0 mm CLR
20:04 16.0 °C 1.3 °C 1014.2 hPa WSW 18.3 km/h 27.0 km/h 37% 0.0 mm CLR
20:10 15.9 °C 1.6 °C 1014.2 hPa West 16.1 km/h 33.8 km/h 38% 0.0 mm CLR
20:14 15.8 °C 1.8 °C 1014.2 hPa West 16.1 km/h 14.8 km/h 39% 0.0 mm CLR
20:20 15.7 °C 1.8 °C 1014.5 hPa WNW 13.7 km/h 20.4 km/h 39% 0.0 mm CLR
20:25 15.6 °C 2.1 °C 1014.5 hPa West 12.9 km/h 24.1 km/h 40% 0.0 mm CLR
20:29 15.4 °C 1.8 °C 1014.5 hPa West 12.2 km/h 17.2 km/h 40% 0.0 mm CLR
20:34 15.4 °C 1.8 °C 1014.6 hPa West 12.2 km/h 11.1 km/h 40% 0.0 mm CLR
20:39 15.3 °C 1.8 °C 1014.6 hPa WSW 10.3 km/h 18.5 km/h 40% 0.0 mm CLR
20:45 15.3 °C 1.8 °C 1014.6 hPa West 11.3 km/h 24.1 km/h 40% 0.0 mm CLR
20:50 15.2 °C 2.0 °C 1014.3 hPa West 12.2 km/h 14.8 km/h 41% 0.0 mm CLR
20:55 15.2 °C 2.0 °C 1014.3 hPa West 12.9 km/h 29.0 km/h 41% 0.0 mm CLR
20:59 15.2 °C 1.7 °C 1014.3 hPa WNW 14.8 km/h 25.9 km/h 40% 0.0 mm CLR
21:05 15.2 °C 1.7 °C 1014.0 hPa West 14.8 km/h 29.6 km/h 40% 0.0 mm CLR
21:10 15.2 °C 1.7 °C 1014.0 hPa West 19.3 km/h 29.0 km/h 40% 0.0 mm CLR
21:14 15.2 °C 1.7 °C 1014.0 hPa WSW 18.0 km/h 27.0 km/h 40% 0.0 mm CLR
21:20 15.2 °C 1.7 °C 1014.0 hPa SW 16.1 km/h 22.2 km/h 40% 0.0 mm CLR
21:24 15.2 °C 1.7 °C 1014.0 hPa West 16.1 km/h 25.9 km/h 40% 0.0 mm CLR
21:30 15.1 °C 1.6 °C 1014.0 hPa WSW 14.8 km/h 20.4 km/h 40% 0.0 mm CLR
21:35 15.1 °C 1.6 °C 1014.3 hPa SW 14.8 km/h 25.9 km/h 40% 0.0 mm CLR
21:39 15.1 °C 1.6 °C 1014.3 hPa WSW 13.7 km/h 20.4 km/h 40% 0.0 mm CLR
21:44 15.0 °C 1.5 °C 1014.3 hPa WSW 13.7 km/h 16.7 km/h 40% 0.0 mm CLR
21:49 15.0 °C 1.8 °C 1014.4 hPa WSW 11.9 km/h 18.5 km/h 41% 0.0 mm CLR
21:54 14.9 °C 1.8 °C 1014.4 hPa WNW 11.9 km/h 18.5 km/h 41% 0.0 mm CLR
21:59 14.8 °C 1.7 °C 1014.4 hPa WNW 11.9 km/h 13.0 km/h 41% 0.0 mm CLR
22:05 14.7 °C 1.6 °C 1014.2 hPa SW 11.9 km/h 18.5 km/h 41% 0.0 mm CLR
22:09 14.7 °C 1.6 °C 1014.2 hPa West 11.1 km/h 16.7 km/h 41% 0.0 mm CLR
22:14 14.7 °C 1.6 °C 1014.2 hPa WSW 11.1 km/h 11.1 km/h 41% 0.0 mm CLR
22:20 14.6 °C 1.8 °C 1014.1 hPa WSW 9.7 km/h 16.1 km/h 42% 0.0 mm CLR
22:24 14.6 °C 1.8 °C 1014.1 hPa WSW 8.7 km/h 9.3 km/h 42% 0.0 mm CLR
22:30 14.6 °C 1.8 °C 1014.1 hPa West 6.4 km/h 7.4 km/h 42% 0.0 mm CLR
22:34 14.5 °C 1.7 °C 1014.4 hPa WSW 6.4 km/h 7.4 km/h 42% 0.0 mm CLR
22:39 14.4 °C 1.9 °C 1014.4 hPa West 6.4 km/h 9.5 km/h 43% 0.0 mm CLR
22:44 14.4 °C 1.9 °C 1014.4 hPa WSW 6.4 km/h 11.1 km/h 43% 0.0 mm CLR
22:49 14.3 °C 1.9 °C 1014.3 hPa WNW 7.6 km/h 13.0 km/h 43% 0.0 mm CLR
22:54 14.2 °C 2.1 °C 1014.3 hPa WSW 7.6 km/h 9.3 km/h 44% 0.0 mm CLR
23:00 14.1 °C 2.0 °C 1014.3 hPa West 8.0 km/h 9.7 km/h 44% 0.0 mm CLR
23:05 14.0 °C 1.9 °C 1014.4 hPa West 8.0 km/h 9.7 km/h 44% 0.0 mm CLR
23:09 13.9 °C 1.8 °C 1014.4 hPa West 4.7 km/h 7.4 km/h 44% 0.0 mm CLR
23:15 13.9 °C 2.2 °C 1014.4 hPa West 4.7 km/h 7.4 km/h 45% 0.0 mm CLR
23:20 13.8 °C 2.1 °C 1014.4 hPa West 3.2 km/h 8.0 km/h 45% 0.0 mm CLR
23:24 13.7 °C 1.9 °C 1014.4 hPa SE 4.7 km/h 5.6 km/h 45% 0.0 mm CLR
23:29 13.6 °C 2.2 °C 1014.4 hPa SE 2.9 km/h 7.4 km/h 46% 0.0 mm CLR
23:35 13.4 °C 2.1 °C 1014.4 hPa SE 3.2 km/h 4.8 km/h 46% 0.0 mm CLR
23:40 13.3 °C 2.2 °C 1014.4 hPa SE 3.2 km/h 7.4 km/h 47% 0.0 mm CLR
23:44 13.3 °C 2.5 °C 1014.4 hPa SW 3.2 km/h 7.4 km/h 48% 0.0 mm CLR
23:50 13.6 °C 2.8 °C 1014.3 hPa WSW 4.8 km/h 14.5 km/h 48% 0.0 mm CLR
23:54 13.9 °C 2.8 °C 1014.3 hPa SSW 5.0 km/h 16.7 km/h 47% 0.0 mm CLR
Murcia-Puente Tocinos, España
Compliments of Weather Underground - 2.75 mb

La estación de MeteoMurcia.com, publica sus datos en los siguientes proyectos:

Weather Underground PWS IMURCIAP2 Meteoclimatic www.awekas.at

W3Counter
Web Analytics